カタログに戻る

THORAD AGENA D DEB

運用中PO
NORAD 4929·DEBRIS·🇺🇸 United States

打ち上げ Apr 8, 1970 から Vandenberg Space Force Base

Loading…

次のパス

TLE

Source: Space-Track
1 04929U 70025FV  26218.22695155  .00000134  00000-0  61047-3 0  9991
2 04929  99.6693 202.0306 0451073 328.2856  42.1063 12.65756061590868

AllMySatでTHORAD AGENA D DEBをリアルタイム追跡

Download on the App Store